Regional Weather Roundup
Issued by NWS Midland/Odessa, TX

Current Version | Previous Version | Text Only | Print | Product List | Glossary On
Versions: 1 2 3 4 5 6 7 8 9 10 11 12 13 14 15 16 17 18 19 20 21 22 23 24 25 26 27 28 29 30 31 32 33 34 35 36 37 38 39 40 41 42 43 44 45 46 47 48 49 50
000
ASUS44 KMAF 301201
RWRMAF
MIDLAND AREA WEATHER ROUNDUP
NATIONAL WEATHER SERVICE MIDLAND TX
700 AM CDT FRI SEP 30 2022

...IN SOUTHWEST TEXAS AND SOUTHEAST NEW MEXICO...

CITY           SKY/WX    TMP DP  RH WIND       PRES   REMARKS
ALPINE         CLEAR     54  42  64 S6        30.24S
ANDREWS        FAIR      61  44  52 W6        30.14S
ARTESIA        MOCLDY    61  43  51 CALM      30.16S
BIG SPRING     CLEAR     58  41  54 SE5       30.12S
CARLSBAD       PTCLDY    58  42  55 CALM      30.12S
DRYDEN           N/A     58  48  69 NW7       30.11S
FORT STOCKTON  CLEAR     59  44  57 S8        30.11F
GUAD PASS      PTCLDY    64  40  41 N3        30.23S
HOBBS          CLEAR     55  41  58 SW7       30.15F
LAMESA         NOT AVBL
MARFA          CLEAR     45  39  79 N5        30.23S
MIDLAND AIRPK  CLEAR     59  46  61 NW3       30.13R
MIDLAND INTL   CLEAR     58  45  62 W3        30.11S
ODESSA         CLEAR     61  45  55 W5        30.12S
PECOS          PTCLDY    60  43  53 CALM      30.10S
PRESIDIO       FAIR      64  47  54 N7        30.13S
SEMINOLE       CLEAR     57  43  59 W7        30.19S
SNYDER         CLEAR     63  41  44 CALM      30.12S
WINK           PTCLDY    55  43  63 E6        30.10S
$$
...OTHER STATIONS IN TEXAS...

CITY           SKY/WX    TMP DP  RH WIND       PRES   REMARKS
ABILENE        CLEAR     63  48  58 SE9       30.10S
AMARILLO       CLEAR     55  41  59 SW7       30.12S
AUSTIN         CLEAR     59  47  64 VRB3      30.08S
BROWNSVILLE    CLEAR     65  62  90 W5        30.02R
CORPUS CHRISTI PTCLDY    65  60  84 N3        30.03S
DALLAS FTW     CLEAR     60  44  55 SE5       30.11S
DEL RIO        CLEAR     62  54  74 CALM      30.05R
EL PASO        PTCLDY    59  38  45 CALM      30.12S
HOUSTON INT    CLEAR     56  47  71 NW3       30.08R
LUBBOCK        CLEAR     57  42  57 W8        30.14S
SAN ANGELO     CLEAR     54  41  61 CALM      30.09S
SAN ANTONIO    CLEAR     65  52  62 NE5       30.08R
WACO           CLEAR     54  45  71 CALM      30.12R
WICHITA FALLS  MOCLDY    60  41  49 S14       30.12F
$$
...OTHER LOCATIONS IN NEW MEXICO...

CITY           SKY/WX    TMP DP  RH WIND       PRES   REMARKS
ALAMOGORDO     MOCLDY    55  39  54 CALM      30.15S
ALBUQUERQUE    CLEAR     58  33  39 E5        30.21S
CANNON AFB     CLEAR     58  41  54 W7        30.18S
CLOVIS         CLEAR     52  40  63 W9        30.19S
HOLLOMAN AFB   NOT AVBL
ROSWELL        PTCLDY    57  42  57 CALM      30.14S
RUIDOSO          N/A     46  34  61 CALM      30.30S
SANTA FE       CLEAR     42  28  57 N7        30.25S WCI  38
TRUTH OR CONSE PTCLDY    56  36  47 NW10      30.17S
TUCUMCARI      CLEAR     59  42  53 SW13      30.12S
$$



USA.gov is the U.S. government's official web portal to all federal, state and local government web resources and services.